This is the latest recevied weather packets stored in our database for station/object N9WHM. If no packets are shown the sender has not sent any weather packets the latest 10 day(s).
| Time | Temp. | Humidity | Pressure | Rain* | Wind** | Luminosity | Snow |
|---|---|---|---|---|---|---|---|
| 1777748318 | 17.78° C | 33% | 1018.3 hPa | 0 mm | - | 769 W/m² | - |
| 1777747711 | 17.78° C | 29% | 1018.6 hPa | 0 mm | - | 773 W/m² | - |
| 1777747103 | 18.33° C | 31% | 1018.6 hPa | 0 mm | - | 772 W/m² | - |
| 1777745887 | 16.67° C | 29% | 1018.9 hPa | 0 mm | - | 772 W/m² | - |
| 1777741643 | 15.56° C | 33% | 1019.8 hPa | 0 mm | - | 712 W/m² | - |
| 1777740429 | 15° C | 35% | 1020.3 hPa | 0 mm | - | 679 W/m² | - |
| 1777739822 | 15° C | 35% | 1020.1 hPa | 0 mm | - | 663 W/m² | - |
| 1777738610 | 14.44° C | 35% | 1020.6 hPa | 0 mm | - | 621 W/m² | - |
| 1777738004 | 14.44° C | 36% | 1020.7 hPa | 0 mm | - | 597 W/m² | - |
| 1777736788 | 13.33° C | 35% | 1020.8 hPa | 0 mm | - | 547 W/m² | - |
| 1777736159 | 13.33° C | 37% | 1020.8 hPa | 0 mm | - | 518 W/m² | - |
| 1777735856 | 12.78° C | 38% | 1020.8 hPa | 0 mm | - | 506 W/m² | - |
| 1777735554 | 12.78° C | 39% | 1020.9 hPa | 0 mm | - | 493 W/m² | - |
| 1777735251 | 12.22° C | 41% | 1020.9 hPa | 0 mm | - | 479 W/m² | - |
| 1777734948 | 12.22° C | 41% | 1021.2 hPa | 0 mm | - | 465 W/m² | - |
| 1777734646 | 12.22° C | 43% | 1021 hPa | 0 mm | - | 452 W/m² | - |
| 1777734343 | 11.67° C | 44% | 1021.2 hPa | 0 mm | - | 437 W/m² | - |
| 1777734039 | 11.11° C | 47% | 1021 hPa | 0 mm | - | 420 W/m² | - |
| 1777733735 | 11.11° C | 45% | 1021.3 hPa | 0 mm | - | 409 W/m² | - |
| 1777733432 | 10.56° C | 49% | 1021.4 hPa | 0 mm | - | 395 W/m² | - |
| 1777733128 | 10.56° C | 49% | 1021.4 hPa | 0 mm | - | 382 W/m² | - |
| 1777732825 | 11.11° C | 49% | 1021.2 hPa | 0 mm | - | 367 W/m² | - |
| 1777732521 | 10° C | 51% | 1021.3 hPa | 0 mm | - | 353 W/m² | - |
| 1777732220 | 9.44° C | 51% | 1021.5 hPa | 0 mm | - | 338 W/m² | - |
| 1777731916 | 9.44° C | 52% | 1021.3 hPa | 0 mm | - | 325 W/m² | - |
* Rain latest hour (hover to see other rain measurements)
** Current wind speed in m/s (hover to see current wind gust speed)